Pine Bluff, AR

12:08 PM CST on February 22, 2017 (GMT -0600)
Grider

Weather History for KPBF - August, 2014

Change the Weather History Date:

Thursday, August 21, 2014

  Actual Average Record
Temperature  
Mean Temperature 83 °F 81 °F  
Max Temperature 92 °F 92 °F 104 °F (1899)
Min Temperature 73 °F 70 °F 57 °F (1956)
Degree Days  
Heating Degree Days 0 0  
Month to date heating degree days 0 0  
Since 1 June heating degree days 1 0  
Since 1 July heating degree days 1 0  
Cooling Degree Days 18 16  
Month to date cooling degree days 294 351  
Year to date cooling degree days 1336 1608  
Since 1 June cooling degree days 1073 1301  
Growing Degree Days 32 (Base 50)    
Moisture  
Dew Point 72 °F    
Average Humidity 72    
Maximum Humidity 91    
Minimum Humidity 52    
Precipitation  
Precipitation 0.00 in 0.07 in 1.03 in (1894)
Month to date precipitation 1.91 1.80  
Year to date precipitation 29.56 32.51  
Snow  
Snow 0.00 in 0.00 in - ()
Month to date snowfall 0.0 0.0  
Since 1 June snowfall 0.0 0.0  
Since 1 July snowfall 0.0 0.0  
Snow Depth 0.00 in    
Sea Level Pressure  
Sea Level Pressure 30.06 in    
Wind  
Wind Speed 7 mph (SSW)    
Max Wind Speed 13 mph    
Max Gust Speed 19 mph    
Visibility 10 miles    
Events      
T = Trace of Precipitation, MM = Missing Value Source: NWS Daily Summary

Daily Weather History Graph

Daily Weather History Graph

Search for Another Location

Airport or City:

Trip Planner

Search our weather history database for the weather conditions in past years. The results will help you decide how hot, cold, wet, or windy it might be!

Date:

Astronomy

Aug. 21, 2014 Rise Set
Actual Time 6:33 AM CDT 7:47 PM CDT
Civil Twilight 6:07 AM CDT 8:13 PM CDT
Nautical Twilight 5:36 AM CDT 8:44 PM CDT
Astronomical Twilight 5:03 AM CDT 9:17 PM CDT
Moon 3:08 AM CDT (8/21) 5:12 PM CDT (8/21)
Length of Visible Light 14h 06m
Length of Day
13h 14m
Waning Crescent, 13% of the Moon is Illuminated
Aug 21
Waning Crescent
Aug 25
New
Sep 2
First Quarter
Sep 8
Full
Sep 15
Last Quarter

Hourly Weather History & Observations

Time (CDT) Temp. Heat Index Dew Point Humidity Pressure Visibility Wind Dir Wind Speed Gust Speed Precip Events Conditions
12:53 AM 75.0 °F - 72.0 °F 90% 30.03 in 10.0 mi South 4.6 mph - N/A   Clear
1:53 AM 75.0 °F - 71.1 °F 87% 30.03 in 10.0 mi SSW 4.6 mph - N/A   Clear
2:53 AM 75.0 °F - 71.1 °F 87% 30.04 in 10.0 mi SSW 5.8 mph - N/A   Clear
3:53 AM 73.9 °F - 70.0 °F 87% 30.05 in 10.0 mi South 5.8 mph - N/A   Clear
4:53 AM 73.0 °F - 70.0 °F 90% 30.06 in 10.0 mi SSW 4.6 mph - N/A   Clear
5:53 AM 73.0 °F - 70.0 °F 90% 30.07 in 10.0 mi SSW 5.8 mph - N/A   Clear
6:53 AM 73.0 °F - 70.0 °F 90% 30.09 in 10.0 mi SW 6.9 mph - N/A   Clear
7:53 AM 75.0 °F - 71.1 °F 87% 30.10 in 10.0 mi SSW 5.8 mph - N/A   Clear
8:53 AM 80.1 °F 84.5 °F 73.9 °F 81% 30.10 in 10.0 mi SSW 6.9 mph - N/A   Partly Cloudy
9:53 AM 82.9 °F 90.2 °F 75.0 °F 77% 30.10 in 10.0 mi SW 11.5 mph - N/A   Partly Cloudy
10:53 AM 86.0 °F 93.8 °F 73.9 °F 67% 30.10 in 10.0 mi SW 10.4 mph - N/A   Clear
11:53 AM 88.0 °F 95.6 °F 73.0 °F 61% 30.09 in 10.0 mi WSW 8.1 mph - N/A   Clear
12:53 PM 91.0 °F 99.3 °F 73.0 °F 55% 30.09 in 10.0 mi SSW 10.4 mph - N/A   Partly Cloudy
1:53 PM 91.0 °F 98.2 °F 72.0 °F 53% 30.08 in 10.0 mi SW 6.9 mph - N/A   Partly Cloudy
2:53 PM 91.0 °F 97.6 °F 71.1 °F 52% 30.06 in 10.0 mi SW 9.2 mph - N/A   Partly Cloudy
3:53 PM 91.9 °F 99.5 °F 72.0 °F 52% 30.04 in 10.0 mi SW 9.2 mph - N/A   Partly Cloudy
4:53 PM 91.9 °F 99.5 °F 72.0 °F 52% 30.03 in 10.0 mi SSW 6.9 mph - N/A   Clear
5:53 PM 91.0 °F 98.2 °F 72.0 °F 53% 30.04 in 10.0 mi South 8.1 mph - N/A   Clear
6:53 PM 88.0 °F 95.6 °F 73.0 °F 61% 30.03 in 10.0 mi South 9.2 mph - N/A   Clear
7:53 PM 82.9 °F 89.4 °F 73.9 °F 74% 30.04 in 10.0 mi South 5.8 mph - N/A   Clear
8:53 PM 80.1 °F 85.1 °F 75.0 °F 85% 30.03 in 10.0 mi South 4.6 mph - N/A   Clear
9:53 PM 78.1 °F - 75.0 °F 90% 30.04 in 10.0 mi Calm Calm - N/A   Clear
10:53 PM 77.0 °F - 73.9 °F 90% 30.04 in 10.0 mi South 3.5 mph - N/A   Clear
11:53 PM 78.8 °F - 73.4 °F 83% 30.05 in 10.0 mi SSW 5.8 mph - N/A   Clear